period_start,C,m1,H,J0,J1,J2,J3,J4,J5,JA,JB,JC,JD,JJ,JK,JN,#
2018-08-28 00:01:24,0.01,1.96,0.00,26.62,30.40,33.21,13.85,47.58,1020.54,2011.97,2638.05,2571.00,2930.85,600.11,591.27,59.54,0000 0000 0000 0000 000000
2018-08-28 00:06:26,0.01,1.96,0.00,26.63,30.41,33.22,13.84,47.64,1020.53,2011.97,2638.01,2571.00,2930.25,600.11,591.16,59.60,0000 0000 0000 0000 000000
2018-08-28 00:11:28,-0.00,1.96,0.00,26.66,30.42,33.24,13.90,47.72,1020.54,2011.95,2637.97,2570.99,2930.03,600.24,591.25,59.65,0000 0000 0000 0000 000000
2018-08-28 00:16:29,0.02,1.96,0.00,26.68,30.44,33.22,13.86,47.72,1020.53,2011.93,2637.52,2570.74,2929.99,600.20,591.18,59.70,0000 0000 0000 0000 000000
2018-08-28 00:21:30,0.04,1.97,0.00,26.70,30.45,33.24,13.84,47.63,1020.52,2011.90,2637.01,2570.03,2929.25,600.18,591.13,59.75,0000 0000 0000 0000 000000
2018-08-28 00:26:32,-0.04,1.96,0.00,26.71,30.47,33.26,13.79,47.65,1020.53,2011.47,2636.91,2569.99,2929.01,599.85,590.81,59.80,0000 0000 0000 0000 000000
2018-08-28 00:31:33,0.02,1.96,0.00,26.73,30.48,33.24,13.82,47.64,1020.53,2011.15,2636.14,2569.35,2928.86,599.81,590.66,59.85,0000 0000 0000 0000 000000
2018-08-28 00:36:34,0.01,1.97,0.00,26.75,30.50,33.26,13.83,47.66,1020.53,2011.05,2636.00,2569.04,2928.20,600.09,590.97,59.90,0000 0000 0000 0000 000000
2018-08-28 00:41:36,0.00,1.97,0.00,26.76,30.51,33.29,13.83,47.60,1020.52,2011.04,2635.99,2569.00,2928.02,600.15,590.97,59.95,0000 0000 0000 0000 000000
2018-08-28 00:46:37,0.01,1.97,0.00,26.79,30.52,33.25,13.85,47.68,1020.53,2011.01,2635.46,2568.96,2927.99,600.11,590.84,60.00,0000 0000 0000 0000 000000
2018-08-28 00:51:38,0.03,1.97,0.00,26.81,30.55,33.26,13.80,47.67,1020.52,2011.00,2635.02,2568.66,2927.72,600.08,590.76,60.05,0000 0000 0000 0000 000000
2018-08-28 00:56:40,0.02,1.97,0.00,26.84,30.56,33.29,13.80,47.63,1020.52,2011.00,2634.98,2568.07,2927.06,600.06,590.60,60.10,0000 0000 0000 0000 000000
2018-08-28 01:01:41,0.00,0.98,0.00,26.86,30.59,33.33,12.34,42.86,1020.52,2011.97,3035.26,2816.57,3229.56,537.48,528.57,0.02,0000 0000 0000 0000 000002
2018-08-28 01:06:42,0.00,0.00,0.00,26.89,30.60,33.35,13.71,47.79,1020.52,2012.67,3430.55,3063.35,3531.38,599.87,590.52,0.04,0000 0000 0000 0000 000000
2018-08-28 01:11:43,0.00,0.00,0.00,26.91,30.62,33.34,13.83,47.90,1020.51,2012.29,3429.08,3062.90,3530.10,599.97,590.43,0.09,0000 0000 0000 0000 000000
2018-08-28 01:16:45,0.00,0.00,0.00,26.96,30.64,33.33,13.84,47.91,1020.48,2012.06,3428.11,3062.12,3529.09,600.22,590.57,0.14,0000 0000 0000 0000 000000
2018-08-28 01:21:46,0.02,0.00,0.00,26.98,30.66,33.29,13.84,47.90,1020.44,2012.12,3426.95,3061.63,3528.21,600.04,590.38,0.19,0000 0000 0000 0000 000000
2018-08-28 01:26:48,0.09,0.01,0.00,27.01,30.68,33.30,13.72,47.84,1020.47,2012.06,3423.66,3059.53,3525.61,599.59,589.99,0.24,0000 0000 0000 0000 000000
2018-08-28 01:31:49,0.16,0.02,0.00,27.04,30.70,33.31,13.79,47.89,1020.49,2012.04,3419.59,3056.61,3522.23,600.13,590.15,0.29,0000 0000 0000 0000 000000
2018-08-28 01:36:50,0.07,0.02,0.00,27.07,30.72,33.30,13.79,47.86,1020.45,2012.00,3417.95,3055.62,3520.74,599.65,589.84,0.34,0000 0000 0000 0000 000000
2018-08-28 01:41:51,0.08,0.02,0.00,27.11,30.75,33.30,13.78,47.93,1020.40,2012.00,3416.07,3054.47,3519.39,600.05,590.07,0.39,0000 0000 0000 0000 000000
2018-08-28 01:46:52,0.14,0.03,0.00,27.14,30.77,33.30,13.81,47.81,1020.49,2012.00,3413.10,3052.77,3517.29,599.81,589.85,0.44,0000 0000 0000 0000 000000
2018-08-28 01:51:54,0.20,0.04,0.00,27.17,30.80,33.32,13.72,47.82,1020.43,2011.99,3408.01,3049.94,3513.89,599.90,589.87,0.49,0000 0000 0000 0000 000000
2018-08-28 01:56:55,0.11,0.05,0.00,27.22,30.82,33.32,13.83,47.89,1020.36,2011.95,3404.70,3048.11,3511.70,599.99,589.83,0.54,0000 0000 0000 0000 000000
2018-08-28 02:01:56,0.11,0.05,0.00,27.26,30.85,33.34,13.74,47.87,1020.29,2011.90,3401.84,3046.61,3509.82,599.95,589.74,0.59,0000 0000 0000 0000 000000
2018-08-28 02:06:58,0.06,0.06,0.00,27.29,30.87,33.33,13.84,47.82,1020.25,2011.81,3399.98,3045.55,3508.54,600.09,589.78,0.64,0000 0000 0000 0000 000000
2018-08-28 02:11:59,0.00,0.06,0.00,27.33,30.90,33.36,13.75,47.77,1020.14,2011.37,3398.66,3044.73,3507.48,599.91,589.24,0.69,0000 0000 0000 0000 000000
2018-08-28 02:17:00,0.02,0.06,0.00,27.36,30.93,33.36,13.84,47.72,1020.07,2011.07,3397.57,3044.01,3506.58,599.68,589.06,0.74,0000 0000 0000 0000 000000
2018-08-28 02:22:01,0.11,0.06,0.00,27.41,30.96,33.38,13.72,47.63,1020.05,2011.01,3395.52,3042.77,3505.03,599.71,589.00,0.79,0000 0000 0000 0000 000000
2018-08-28 02:27:03,0.06,0.07,0.00,27.45,30.99,33.41,13.72,47.53,1020.04,2011.00,3393.37,3041.48,3503.50,600.01,589.24,0.84,0000 0000 0000 0000 000000
2018-08-28 02:32:04,0.17,0.07,0.00,27.49,31.01,33.44,13.77,47.55,1020.04,2011.00,3390.04,3039.43,3501.08,600.04,589.24,0.89,0000 0000 0000 0000 000000
2018-08-28 02:37:05,0.11,0.08,0.00,27.53,31.05,33.45,13.69,47.58,1020.04,2010.97,3386.82,3037.64,3498.86,599.54,588.50,0.94,0000 0000 0000 0000 000000
2018-08-28 02:42:06,0.11,0.09,0.00,27.57,31.08,33.48,13.74,47.67,1020.04,2010.87,3383.61,3035.81,3496.68,600.08,589.11,0.99,0000 0000 0000 0000 000000
2018-08-28 02:47:07,0.07,0.09,0.00,27.62,31.11,33.52,13.79,47.62,1020.04,2010.69,3381.07,3034.36,3495.11,599.90,588.77,1.04,0000 0000 0000 0000 000000
2018-08-28 02:52:08,0.14,0.10,0.00,27.65,31.14,33.56,13.69,47.67,1020.04,2010.26,3376.60,3031.75,3491.85,599.81,588.65,1.09,0000 0000 0000 0000 000000
2018-08-28 02:57:09,0.03,0.10,0.00,27.70,31.18,33.58,13.74,47.91,1020.04,2010.04,3375.04,3030.90,3490.66,599.98,588.89,1.14,0000 0000 0000 0000 000000
2018-08-28 03:02:10,0.05,0.10,0.00,27.74,31.21,33.62,13.78,47.78,1020.04,2010.00,3373.83,3030.08,3489.76,599.99,588.67,1.19,0000 0000 0000 0000 000000
2018-08-28 03:07:11,0.04,0.11,0.00,27.79,31.25,33.64,13.75,47.86,1020.04,2009.95,3372.66,3029.16,3488.67,599.92,588.45,1.24,0000 0000 0000 0000 000000
2018-08-28 03:12:13,-0.04,0.11,0.00,27.83,31.28,33.69,13.68,47.77,1020.04,2009.39,3372.14,3028.89,3487.95,599.86,588.20,1.29,0000 0000 0000 0000 000000
2018-08-28 03:17:14,0.03,0.11,0.00,27.88,31.32,33.72,13.78,47.77,1020.04,2009.05,3371.30,3028.05,3487.06,599.97,588.46,1.34,0000 0000 0000 0000 000000
2018-08-28 03:22:16,0.03,0.11,0.00,27.93,31.36,33.75,13.73,47.84,1020.03,2009.00,3370.91,3027.58,3486.36,600.33,588.57,1.39,0000 0000 0000 0000 000000
2018-08-28 03:27:17,0.01,0.11,0.00,27.93,31.39,33.82,13.77,47.83,1020.03,2008.99,3370.12,3027.02,3485.99,600.07,588.37,1.44,0000 0000 0000 0000 000000
2018-08-28 03:32:18,0.00,0.11,0.00,27.86,31.41,33.86,13.78,47.84,1020.03,2008.87,3369.81,3026.95,3485.31,599.93,588.34,1.49,0000 0000 0000 0000 000000
2018-08-28 03:37:19,-0.00,0.11,0.00,27.80,31.44,33.93,13.70,47.71,1020.03,2008.58,3369.05,3026.22,3484.99,600.12,588.60,1.54,0000 0000 0000 0000 000000
2018-08-28 03:42:20,-0.01,0.11,0.00,27.71,31.45,34.14,13.81,47.62,1020.02,2008.15,3368.86,3026.01,3484.43,600.18,588.85,1.59,0000 0000 0000 0000 000000
2018-08-28 03:47:22,0.02,0.11,0.00,27.65,31.47,34.26,13.74,47.67,1020.00,2008.10,3368.29,3026.00,3484.05,599.81,588.47,1.64,0000 0000 0000 0000 000000
2018-08-28 03:52:23,0.00,0.11,0.00,27.61,31.47,34.27,13.71,47.67,1019.98,2008.11,3368.03,3025.99,3484.00,599.86,588.71,1.69,0000 0000 0000 0000 000000
2018-08-28 03:57:24,-0.01,0.11,0.00,27.59,31.47,34.25,13.79,47.88,1019.97,2008.06,3367.99,3025.96,3483.99,599.84,588.77,1.74,0000 0000 0000 0000 000000
2018-08-28 04:02:25,0.04,0.11,0.00,27.57,31.47,34.21,13.80,47.73,1019.97,2008.08,3367.53,3025.58,3483.79,600.03,589.01,1.79,0000 0000 0000 0000 000000
2018-08-28 04:07:27,0.01,0.11,0.00,27.57,31.47,34.16,13.88,47.85,1019.94,2008.08,3367.09,3025.23,3483.21,600.41,589.24,1.84,0000 0000 0000 0000 000000
2018-08-28 04:12:28,0.00,0.11,0.00,27.57,31.47,34.13,13.83,47.73,1019.76,2008.06,3367.00,3025.03,3483.00,600.23,589.04,1.89,0000 0000 0000 0000 000000
2018-08-28 04:17:29,0.01,0.11,0.00,27.58,31.46,34.12,13.86,47.75,1019.74,2008.09,3366.80,3025.00,3483.00,599.99,588.69,1.94,0000 0000 0000 0000 000000
2018-08-28 04:22:31,0.01,0.11,0.00,27.60,31.45,34.07,13.66,47.66,1019.72,2008.11,3366.25,3025.00,3482.95,599.83,588.39,1.99,0000 0000 0000 0000 000000
2018-08-28 04:27:32,0.01,0.11,0.00,27.62,31.45,34.05,13.72,47.69,1019.75,2008.09,3366.06,3024.99,3482.63,599.98,588.67,2.04,0000 0000 0000 0000 000000
2018-08-28 04:32:33,0.02,0.11,0.00,27.64,31.44,34.04,13.91,47.67,1019.76,2008.31,3366.01,3024.99,3482.36,600.43,589.00,2.09,0000 0000 0000 0000 000000
2018-08-28 04:37:34,-0.02,0.11,0.00,27.67,31.42,33.99,13.71,47.58,1019.73,2008.14,3365.99,3024.95,3482.02,600.12,588.75,2.14,0000 0000 0000 0000 000000
2018-08-28 04:42:36,0.00,0.11,0.00,27.70,31.42,33.97,13.73,47.57,1019.75,2008.09,3365.83,3024.83,3482.00,600.13,588.67,2.19,0000 0000 0000 0000 000000
2018-08-28 04:47:37,0.02,0.12,0.00,27.74,31.42,33.96,13.64,47.77,1019.65,2008.09,3365.13,3024.30,3481.97,599.98,588.27,2.24,0000 0000 0000 0000 000000
2018-08-28 04:52:39,0.01,0.12,0.00,27.77,31.42,33.95,13.74,47.73,1019.59,2008.09,3365.01,3024.06,3481.42,600.00,588.30,2.29,0000 0000 0000 0000 000000
2018-08-28 04:57:40,0.00,0.12,0.00,27.81,31.42,33.94,13.74,47.71,1019.57,2008.04,3364.98,3024.00,3481.04,599.87,588.15,2.35,0000 0000 0000 0000 000000
2018-08-28 05:02:41,0.01,0.12,0.00,27.85,31.42,33.93,13.73,47.69,1019.56,2008.06,3364.60,3024.00,3481.00,600.08,588.15,2.40,0000 0000 0000 0000 000000
2018-08-28 05:07:42,0.01,0.12,0.00,27.89,31.43,33.94,13.71,47.64,1019.56,2008.04,3364.09,3023.99,3480.94,599.97,588.03,2.45,0000 0000 0000 0000 000000
2018-08-28 05:12:44,0.01,0.12,0.00,27.93,31.45,33.92,13.72,47.58,1019.57,2008.02,3364.00,3023.93,3480.45,600.05,588.00,2.50,0000 0000 0000 0000 000000
2018-08-28 05:17:45,0.01,0.12,0.00,27.98,31.45,33.85,13.73,47.57,1019.56,2008.01,3363.89,3023.55,3480.04,599.92,587.81,2.55,0000 0000 0000 0000 000000
2018-08-28 05:22:47,0.02,0.12,0.00,28.02,31.46,33.83,13.73,47.50,1019.56,2008.01,3363.21,3023.09,3480.00,599.85,587.65,2.60,0000 0000 0000 0000 000000
2018-08-28 05:27:48,0.00,0.12,0.00,28.06,31.47,33.82,13.70,47.48,1019.57,2008.00,3363.01,3023.01,3479.76,599.99,587.73,2.65,0000 0000 0000 0000 000000
2018-08-28 05:32:49,0.01,0.12,0.00,28.10,31.49,33.84,13.70,47.55,1019.58,2008.00,3362.91,3022.98,3479.08,599.89,587.49,2.70,0000 0000 0000 0000 000000
2018-08-28 05:37:50,0.05,0.12,0.00,28.14,31.51,33.86,13.75,47.64,1019.58,2008.00,3361.62,3022.38,3478.78,600.23,587.80,2.75,0000 0000 0000 0000 000000
2018-08-28 05:42:52,0.01,0.12,0.00,28.18,31.53,33.88,13.64,47.56,1019.58,2008.00,3361.01,3022.00,3478.04,599.79,587.35,2.80,0000 0000 0000 0000 000000
2018-08-28 05:47:53,0.01,0.12,0.00,28.23,31.55,33.90,13.72,47.57,1019.58,2008.00,3360.96,3021.79,3477.96,599.97,587.41,2.85,0000 0000 0000 0000 000000
2018-08-28 05:52:54,0.03,0.13,0.00,28.28,31.57,33.92,13.73,47.53,1019.59,2008.00,3360.34,3021.21,3477.39,599.88,587.17,2.90,0000 0000 0000 0000 000000
2018-08-28 05:57:56,0.00,0.13,0.00,28.32,31.60,33.95,13.63,47.58,1019.68,2007.98,3360.00,3021.00,3477.00,599.80,586.98,2.95,0000 0000 0000 0000 000000
2018-08-28 06:02:57,0.02,0.13,0.00,28.36,31.62,33.97,13.64,47.48,1019.65,2007.95,3359.52,3020.89,3476.65,599.78,586.97,3.00,0000 0000 0000 0000 000000
2018-08-28 06:07:58,0.02,0.13,0.00,28.41,31.65,34.00,13.72,47.51,1019.65,2007.81,3358.98,3020.16,3476.03,600.00,587.06,3.05,0000 0000 0000 0000 000000
2018-08-28 06:12:59,0.00,0.13,0.00,28.46,31.67,34.03,13.71,47.50,1019.59,2007.71,3358.46,3020.01,3475.87,599.98,586.91,3.10,0000 0000 0000 0000 000000
2018-08-28 06:18:01,0.01,0.13,0.00,28.51,31.70,34.05,13.67,47.60,1019.57,2007.37,3357.85,3019.73,3475.09,600.02,586.87,3.15,0000 0000 0000 0000 000000
2018-08-28 06:23:02,0.01,0.13,0.00,28.56,31.73,34.09,13.72,47.47,1019.56,2007.24,3357.21,3019.14,3474.93,600.24,586.99,3.20,0000 0000 0000 0000 000000
2018-08-28 06:28:03,0.00,0.13,0.00,28.60,31.76,34.12,13.69,47.35,1019.56,2007.06,3356.87,3018.99,3474.20,599.99,586.65,3.25,0000 0000 0000 0000 000000
2018-08-28 06:33:05,0.02,0.13,0.00,28.65,31.79,34.14,13.59,47.48,1019.57,2007.00,3356.06,3018.50,3473.92,599.91,586.55,3.30,0000 0000 0000 0000 000000
2018-08-28 06:38:06,0.03,0.13,0.00,28.70,31.82,34.17,13.65,47.38,1019.56,2007.00,3355.56,3018.03,3473.17,599.83,586.25,3.35,0000 0000 0000 0000 000000
2018-08-28 06:43:07,0.05,0.13,0.00,28.74,31.85,34.21,13.73,47.48,1019.57,2007.00,3354.42,3017.43,3472.43,600.56,586.90,3.40,0000 0000 0000 0000 000000
2018-08-28 06:48:08,0.11,0.14,0.00,28.79,31.89,34.24,13.67,47.38,1019.56,2006.98,3352.39,3015.68,3470.46,600.24,586.63,3.45,0000 0000 0000 0000 000000
2018-08-28 06:53:10,0.09,0.14,0.00,28.84,31.92,34.29,13.69,47.33,1019.57,2006.92,3350.32,3014.03,3468.57,600.11,586.32,3.50,0000 0000 0000 0000 000000
2018-08-28 06:58:11,0.07,0.15,0.00,28.89,31.95,34.31,13.67,47.34,1019.56,2006.59,3348.12,3012.19,3466.40,599.99,586.08,3.55,0000 0000 0000 0000 000000
2018-08-28 07:03:12,0.10,0.15,0.00,28.94,31.99,34.34,13.65,47.20,1019.57,2006.13,3345.65,3010.20,3464.08,600.02,586.03,3.60,0000 0000 0000 0000 000000
2018-08-28 07:08:14,0.12,0.16,0.00,29.00,32.02,34.39,13.69,47.16,1019.58,2006.01,3343.07,3008.20,3461.71,600.22,586.18,3.65,0000 0000 0000 0000 000000
2018-08-28 07:13:15,0.13,0.17,0.00,29.04,32.06,34.43,13.66,47.13,1019.58,2006.00,3340.49,3006.32,3459.37,600.25,585.99,3.70,0000 0000 0000 0000 000000
2018-08-28 07:18:17,0.14,0.17,0.00,29.09,32.10,34.46,13.58,47.16,1019.60,2006.00,3337.71,3004.06,3456.79,599.54,585.35,3.75,0000 0000 0000 0000 000000
2018-08-28 07:23:18,0.14,0.18,0.00,29.15,32.13,34.50,13.66,46.96,1019.66,2005.93,3334.79,3001.72,3454.19,599.98,585.56,3.80,0000 0000 0000 0000 000000
2018-08-28 07:28:19,0.09,0.19,0.00,29.21,32.17,34.54,13.70,47.32,1019.70,2005.51,3331.79,2999.34,3451.49,600.28,585.76,3.85,0000 0000 0000 0000 000000
2018-08-28 07:33:21,0.16,0.19,0.00,29.26,32.21,34.57,13.58,47.28,1019.61,2005.10,3328.31,2996.54,3448.27,599.76,585.17,3.90,0000 0000 0000 0000 000000
2018-08-28 07:38:22,0.40,0.21,0.00,29.32,32.25,34.61,13.60,47.14,1019.59,2005.02,3321.02,2990.17,3440.98,599.94,585.28,3.95,0000 0000 0000 0000 000000
2018-08-28 07:43:23,0.17,0.22,0.00,29.38,32.29,34.66,13.60,47.02,1019.57,2005.00,3317.30,2987.24,3437.55,600.07,585.14,4.00,0000 0000 0000 0000 000000
2018-08-28 07:48:25,0.17,0.23,0.00,29.44,32.33,34.70,13.59,47.13,1019.57,2004.94,3313.80,2984.45,3434.25,599.88,584.94,4.05,0000 0000 0000 0000 000000
2018-08-28 07:53:26,0.16,0.24,0.00,29.49,32.37,34.75,13.50,46.99,1019.60,2004.78,3310.45,2981.72,3431.16,599.19,584.20,4.10,0000 0000 0000 0000 000000
2018-08-28 07:58:28,0.10,0.24,0.00,29.56,32.42,34.80,13.69,46.96,1019.58,2004.12,3307.22,2979.16,3428.24,600.38,585.15,4.15,0000 0000 0000 0000 000000
2018-08-28 08:03:29,0.15,0.25,0.00,29.61,32.46,34.83,13.61,46.96,1019.62,2004.01,3304.25,2976.76,3425.42,600.23,584.87,4.20,0000 0000 0000 0000 000000
2018-08-28 08:08:30,0.12,0.26,0.00,29.67,32.51,34.89,13.59,46.95,1019.79,2004.00,3301.91,2974.83,3423.27,599.69,584.43,4.25,0000 0000 0000 0000 000000
2018-08-28 08:13:31,0.12,0.26,0.00,29.72,32.55,34.93,13.60,47.11,1019.86,2003.95,3299.49,2972.80,3420.95,599.78,584.44,4.30,0000 0000 0000 0000 000000
2018-08-28 08:18:33,0.07,0.27,0.00,29.78,32.60,34.98,13.62,46.87,1019.92,2003.56,3296.95,2970.79,3418.54,600.02,584.61,4.35,0000 0000 0000 0000 000000
2018-08-28 08:23:34,0.08,0.27,0.00,29.83,32.64,35.03,13.54,46.96,1019.93,2003.07,3294.86,2969.00,3416.48,599.90,584.54,4.40,0000 0000 0000 0000 000000
2018-08-28 08:28:35,0.16,0.28,0.00,29.88,32.69,35.08,13.58,46.89,1020.00,2003.00,3292.37,2966.83,3413.97,600.11,584.45,4.45,0000 0000 0000 0000 000000
2018-08-28 08:33:37,0.11,0.29,0.00,29.93,32.74,35.13,13.53,46.99,1020.01,2002.99,3289.64,2964.46,3411.25,599.98,584.32,4.50,0000 0000 0000 0000 000000
2018-08-28 08:38:38,0.08,0.29,0.00,29.98,32.78,35.17,13.61,47.67,1020.03,2002.87,3287.72,2962.94,3409.51,599.38,583.61,4.55,0000 0000 0000 0000 000000
2018-08-28 08:43:40,0.02,0.29,0.00,30.02,32.83,35.23,13.64,47.52,1020.03,2002.31,3285.98,2961.62,3407.89,599.93,584.17,4.61,0000 0000 0000 0000 000000
2018-08-28 08:48:41,0.07,0.30,0.00,30.07,32.88,35.27,13.60,47.35,1020.03,2002.00,3284.41,2960.31,3406.35,599.95,584.05,4.66,0000 0000 0000 0000 000000
2018-08-28 08:53:42,0.07,0.30,0.00,30.11,32.93,35.31,13.55,47.27,1020.03,2002.00,3282.88,2959.19,3404.89,599.72,583.68,4.71,0000 0000 0000 0000 000000
2018-08-28 08:58:43,0.07,0.30,0.00,30.15,32.97,35.36,13.64,47.34,1020.03,2001.94,3281.40,2957.97,3403.55,600.17,584.05,4.76,0000 0000 0000 0000 000000
2018-08-28 09:03:45,0.04,0.31,0.00,30.20,33.01,35.42,13.51,47.13,1020.02,2001.71,3279.95,2956.86,3402.26,599.86,583.77,4.81,0000 0000 0000 0000 000000
2018-08-28 09:08:46,0.03,0.31,0.00,30.25,33.06,35.45,13.58,47.02,1020.03,2001.15,3278.47,2955.72,3400.82,599.90,583.59,4.86,0000 0000 0000 0000 000000
2018-08-28 09:13:47,0.07,0.31,0.00,30.29,33.11,35.49,13.51,47.17,1020.03,2001.02,3276.85,2954.57,3399.53,599.91,583.54,4.91,0000 0000 0000 0000 000000
2018-08-28 09:18:48,0.06,0.31,0.00,30.34,33.15,35.54,13.52,46.97,1020.03,2001.00,3275.48,2953.47,3398.22,599.62,583.31,4.96,0000 0000 0000 0000 000000
2018-08-28 09:23:50,0.06,0.32,0.00,30.38,33.20,35.58,13.63,47.08,1020.03,2000.99,3274.13,2952.46,3396.90,600.28,583.73,5.01,0000 0000 0000 0000 000000
2018-08-28 09:28:51,0.06,0.32,0.00,30.43,33.25,35.63,13.52,46.96,1020.03,2000.88,3272.66,2951.35,3395.59,599.82,583.12,5.06,0000 0000 0000 0000 000000
2018-08-28 09:33:53,0.01,0.32,0.00,30.48,33.30,35.68,13.59,46.95,1020.03,2000.32,3271.17,2950.17,3394.24,599.82,583.15,5.11,0000 0000 0000 0000 000000
2018-08-28 09:38:54,0.14,0.33,0.00,30.53,33.35,35.72,13.66,46.88,1020.03,2000.04,3268.68,2947.82,3391.58,600.28,583.54,5.16,0000 0000 0000 0000 000000
2018-08-28 09:43:55,0.36,0.34,0.00,30.57,33.40,35.77,13.52,46.84,1020.03,2000.00,3262.91,2943.53,3386.74,600.12,583.21,5.21,0000 0000 0000 0000 000000
2018-08-28 09:48:56,0.50,0.37,0.00,30.62,33.44,35.82,13.54,46.93,1020.03,2000.00,3251.88,2936.17,3378.32,600.11,583.14,5.26,0000 0000 0000 0000 000000
2018-08-28 09:53:58,0.19,0.38,0.00,30.66,33.49,35.86,13.58,46.91,1020.03,1999.89,3246.46,2932.39,3374.04,600.10,582.97,5.31,0000 0000 0000 0000 000000
2018-08-28 09:59:00,0.13,0.39,0.00,30.71,33.54,35.91,13.59,46.92,1020.03,1999.46,3242.30,2929.66,3371.02,600.22,583.09,5.36,0000 0000 0000 0000 000000
2018-08-28 10:04:01,0.22,0.40,0.00,30.75,33.58,35.96,13.57,46.90,1020.04,1999.06,3236.96,2926.10,3366.90,599.91,582.70,5.41,0000 0000 0000 0000 000000
2018-08-28 10:09:02,0.08,0.40,0.00,30.78,33.63,36.01,13.52,46.84,1020.04,1999.00,3234.99,2924.64,3365.09,599.48,582.26,5.46,0000 0000 0000 0000 000000
2018-08-28 10:14:04,0.10,0.41,0.00,30.81,33.67,36.06,13.55,46.92,1020.04,1998.98,3233.06,2923.16,3363.31,600.19,582.90,5.51,0000 0000 0000 0000 000000
2018-08-28 10:19:05,0.45,0.42,0.00,30.82,33.71,36.10,13.54,46.92,1020.05,1998.87,3226.97,2918.96,3358.56,599.88,582.54,5.56,0000 0000 0000 0000 000000
2018-08-28 10:24:06,0.28,0.45,0.00,30.84,33.74,36.13,13.53,46.93,1020.06,1998.49,3216.52,2911.87,3350.65,599.88,582.52,5.61,0000 0000 0000 0000 000000
2018-08-28 10:29:08,0.06,0.45,0.00,30.86,33.78,36.18,13.51,46.95,1020.05,1998.11,3214.44,2910.31,3348.77,599.52,582.21,5.66,0000 0000 0000 0000 000000
2018-08-28 10:34:09,0.09,0.46,0.00,30.87,33.81,36.21,13.52,46.68,1020.10,1998.01,3212.63,2908.88,3347.13,599.98,582.50,5.71,0000 0000 0000 0000 000000
2018-08-28 10:39:10,0.12,0.46,0.00,30.90,33.84,36.25,13.58,46.92,1020.11,1997.99,3210.40,2907.16,3345.05,600.12,582.66,5.76,0000 0000 0000 0000 000000
2018-08-28 10:44:11,0.17,0.47,0.00,30.93,33.87,36.29,13.60,46.92,1020.17,1997.97,3207.09,2904.70,3342.18,600.13,582.65,5.81,0000 0000 0000 0000 000000
2018-08-28 10:49:12,0.20,0.48,0.00,30.96,33.90,36.31,13.56,46.91,1020.30,1997.71,3202.71,2901.55,3338.58,600.24,582.93,5.86,0000 0000 0000 0000 000000
2018-08-28 10:54:14,0.22,0.49,0.00,30.99,33.93,36.36,13.53,46.88,1020.36,1997.25,3197.50,2897.75,3334.22,599.77,582.21,5.91,0000 0000 0000 0000 000000
2018-08-28 10:59:15,0.29,0.50,0.00,31.03,33.96,36.40,13.51,46.76,1020.44,1997.04,3191.75,2893.68,3329.56,599.90,582.39,5.96,0000 0000 0000 0000 000000
2018-08-28 11:04:17,0.24,0.51,0.00,31.05,33.98,36.44,13.59,46.77,1020.48,1997.00,3186.63,2889.95,3325.37,599.97,582.55,6.01,0000 0000 0000 0000 000000
2018-08-28 11:09:18,0.21,0.53,0.00,31.05,34.01,36.48,13.49,46.82,1020.49,1997.00,3182.45,2886.71,3321.66,599.60,582.12,6.06,0000 0000 0000 0000 000000
2018-08-28 11:14:19,0.18,0.54,0.00,31.04,34.03,36.50,13.58,46.87,1020.52,1996.99,3178.73,2883.80,3318.32,600.01,582.54,6.11,0000 0000 0000 0000 000000
2018-08-28 11:19:21,0.24,0.55,0.00,31.01,34.06,36.53,13.57,46.83,1020.52,1996.90,3174.31,2880.61,3314.53,600.12,582.63,6.16,0000 0000 0000 0000 000000
2018-08-28 11:24:22,0.26,0.56,0.00,30.98,34.08,36.56,13.53,46.77,1020.52,1996.53,3167.94,2876.40,3309.58,600.20,582.86,6.21,0000 0000 0000 0000 000000
2018-08-28 11:29:23,0.15,0.57,0.00,30.95,34.10,36.57,13.56,46.83,1020.52,1996.17,3163.44,2873.37,3306.10,599.92,582.56,6.26,0000 0000 0000 0000 000000
2018-08-28 11:34:24,0.20,0.58,0.00,30.92,34.11,36.59,13.53,46.82,1020.52,1996.09,3159.64,2870.83,3303.15,599.77,582.46,6.31,0000 0000 0000 0000 000000
2018-08-28 11:39:26,0.19,0.59,0.00,30.90,34.13,36.61,13.57,46.73,1020.52,1996.02,3155.53,2867.88,3299.71,600.11,582.86,6.36,0000 0000 0000 0000 000000
2018-08-28 11:44:27,0.26,0.60,0.00,30.88,34.15,36.63,13.56,46.83,1020.52,1996.01,3150.43,2864.42,3295.75,599.73,582.56,6.41,0000 0000 0000 0000 000000
2018-08-28 11:49:29,0.20,0.61,0.00,30.85,34.15,36.64,13.63,46.93,1020.52,1996.00,3146.26,2861.41,3292.19,600.42,583.17,6.46,0000 0000 0000 0000 000000
2018-08-28 11:54:30,0.20,0.62,0.00,30.83,34.16,36.64,13.52,46.81,1020.52,1996.00,3142.46,2858.60,3288.93,599.86,582.75,6.51,0000 0000 0000 0000 000000
2018-08-28 11:59:31,0.17,0.63,0.00,30.82,34.17,36.65,13.57,46.74,1020.52,1996.00,3138.97,2855.97,3285.83,600.02,582.97,6.56,0000 0000 0000 0000 000000
2018-08-28 12:04:33,0.15,0.64,0.00,30.80,34.17,36.65,13.60,46.86,1020.52,1996.00,3136.05,2853.85,3283.31,600.28,583.26,6.61,0000 0000 0000 0000 000000
2018-08-28 12:09:34,0.16,0.65,0.00,30.77,34.17,36.65,13.55,46.92,1020.52,1995.99,3132.70,2851.42,3280.46,600.03,583.05,6.66,0000 0000 0000 0000 000000
2018-08-28 12:14:36,0.22,0.66,0.00,30.76,34.17,36.65,13.53,46.95,1020.52,1995.98,3128.07,2848.38,3276.98,599.63,582.67,6.71,0000 0000 0000 0000 000000
2018-08-28 12:19:37,0.09,0.67,0.00,30.75,34.18,36.65,13.59,46.95,1020.52,1995.98,3125.92,2846.95,3275.25,599.93,582.99,6.76,0000 0000 0000 0000 000000
2018-08-28 12:24:38,0.08,0.67,0.00,30.72,34.18,36.65,13.66,46.91,1020.52,1995.98,3124.28,2845.78,3273.80,600.15,583.39,6.81,0000 0000 0000 0000 000000
2018-08-28 12:29:39,0.07,0.67,0.00,30.72,34.18,36.65,13.60,46.85,1020.52,1995.98,3122.80,2844.85,3272.56,600.15,583.25,6.86,0000 0000 0000 0000 000000
2018-08-28 12:34:40,0.05,0.68,0.00,30.70,34.17,36.65,13.64,46.88,1020.52,1995.96,3121.58,2844.04,3271.59,599.91,583.08,6.92,0000 0000 0000 0000 000000
2018-08-28 12:39:42,0.05,0.68,0.00,30.67,34.17,36.65,13.58,46.89,1020.52,1995.96,3120.55,2843.31,3270.80,600.10,583.42,6.97,0000 0000 0000 0000 000000
2018-08-28 12:44:43,0.02,0.68,0.00,30.65,34.17,36.65,13.56,46.90,1020.51,1995.98,3119.72,2843.00,3270.05,599.69,583.02,7.02,0000 0000 0000 0000 000000
2018-08-28 12:49:44,0.05,0.68,0.00,30.64,34.17,36.64,13.64,46.93,1020.50,1995.98,3118.80,2842.46,3269.33,600.15,583.36,7.07,0000 0000 0000 0000 000000
2018-08-28 12:54:46,0.02,0.69,0.00,30.62,34.17,36.65,13.61,46.83,1020.50,1995.96,3117.91,2842.00,3268.72,599.96,583.23,7.12,0000 0000 0000 0000 000000
2018-08-28 12:59:47,0.04,0.69,0.00,30.60,34.17,36.64,13.56,46.87,1020.49,1995.98,3117.06,2841.62,3268.03,599.88,583.14,7.17,0000 0000 0000 0000 000000